Location: Bothwell
(41.7170°N, 112.2589°W)
Time: 14:24:12
(UTC+00:00)

Vanguard 2 - Pass Details

Date: 13 May 2026
Orbit: 553 x 2894 km, 32.9° (Epoch: 8 June)

Event Time Altitude Azimuth Distance (km) Brightness Sun altitude
Rises 16:27:14 0° 276° (W) 5,827 11.6 45.7°
Reaches altitude 10° 16:33:13 10° 260° (W) 4,327 11.1 46.8°
Maximum altitude 16:39:34 17° 225° (SW) 3,186 10.7 47.9°
Drops below altitude 10° 16:44:30 10° 188° (S) 3,204 11.0 48.7°
Sets 16:48:00 0° 168° (SSE) 3,793 11.4 49.3°
